STARLINK-1059 (44764 NORAD) Tracking and Keplerian Element Data

This shows tracking and keplerian element data for the satellite.

Feedback or suggestion? Click here.




ElementValue
Catalog44764
NameSTARLINK-1059
Epoch Orbit1064
Epoch Day18.25002315
Epoch Year2020
RAAN195.8406
Inclination53.0071
Eccentricity0.0001378
Argument of Perigee82.7267
Mean Anonmoly225.6127
Mean Motion15.43013237
Decay Rate-0.00097249
L11 44764U 19074BD 20018.25002315 -.00097249 00000-0 -21896-2 0 9996
L22 44764 53.0071 195.8406 0001378 82.7267 225.6127 15.43013237 10642

Live tracking and technical data element details for STARLINK-1059 (NORAD 44764). STARLINK-1059 can be tracked NOW for your location showing map with azimuth and elevation plus other details from your city location.

Track the satellite on the map from your city or location and see movement details for azimuth, elevation, latitude, longitude, range, height, and movement on the map or in text.







IsCatalogInMostPopularTable: catalog: 44764, numindb: 12
Update: records affected: 1



GetName: 44764 STARLINK-1059

Hit Count: updated at: Mon, 20 Jan 2020 02:36:19 GMT